Regional Weather Roundup
Issued by NWS

Home | Current Version | Previous Version | Text Only | Print | Product List | Glossary Off
Versions: 1 2 3 4 5 6 7 8 9 10 11 12 13 14 15 16 17 18 19 20 21 22 23 24 25 26 27 28 29 30 31 32 33 34 35 36 37 38 39 40 41 42 43 44 45 46 47 48 49 50

000
ASUS45 KSLC 272010
RWRUT

UTAH REGIONAL WEATHER ROUNDUP
NATIONAL WEATHER SERVICE SALT LAKE CITY UT
200 PM MDT FRI MAR 27 2015

UTZ001>011-023>025-272100-

NORTHERN UTAH

CITY           SKY/WX    TMP DP  RH WIND       PRES   REMARKS
BRIGHAM CITY   SUNNY     63  28  26 SW6       30.27F
HILL AFB       SUNNY     65  30  27 NW5       30.28F
LOGAN          SUNNY     63  34  33 VRB3      30.26F
OGDEN          SUNNY     65  30  27 VRB6      30.26F
PROVO AIRPORT  SUNNY     61  32  33 VRB3      30.29F
SALT LAKE CITY MOSUNNY   65  30  27 SE3       30.26F
VERNAL         SUNNY     65  27  23 VRB5      30.25F
WENDOVER       SUNNY     61  28  29 SE7       30.27F
HEBER CITY     SUNNY     64  30  27 N3        30.28F
WEST JORDAN    SUNNY     64  34  32 CALM      30.28F

$$

UTZ012>022-026-027-272100-

SOUTHERN/CENTRAL UTAH

CITY           SKY/WX    TMP DP  RH WIND       PRES   REMARKS
BLANDING       SUNNY     66  25  21 S9G16     30.35F
BRYCE CANYON   SUNNY     64  19  17 W10       30.36F
CEDAR CITY     SUNNY     69  25  19 NW5       30.27F
DELTA          SUNNY     66  25  20 CALM      30.27F
HANKSVILLE     SUNNY     72  23  16 CALM      30.24F
MILFORD        SUNNY     72  29  20 CALM      30.26F
MOAB/CYNLANDS  SUNNY     70  22  16 W8        30.22F
PRICE          SUNNY     68  26  20 VRB7      30.26F
ST GEORGE      CLEAR     73  32  21 CALM      30.20F
KANAB          SUNNY     73  25  16 SE7       30.28F

$$

REGIONAL REPORTS     COLORADO/ARIZONA

CITY           SKY/WX    TMP DP  RH WIND       PRES   REMARKS
CRAIG, CO      SUNNY     63  30  28 W9        30.27F
GRAND JUNCTION SUNNY     67  24  19 W5        30.23F
RIFLE          SUNNY     64  28  25 VRB3      30.23F
MONTROSE       SUNNY     65  21  18 N9        30.27F
CORTEZ         SUNNY     67  23  19 NW14G21   30.27F
PAGE, AZ       SUNNY     70  21  15 VRB5      30.23F
GRAND CANYON   SUNNY     70  13  11 SW10      30.33F
KINGMAN        SUNNY     80  21  11 CALM      30.19F
FLAGSTAFF      SUNNY     70  13  11 SW15G21   30.35F

$$

REGIONAL REPORTS    NEVADA/IDAHO/WYOMING

CITY           SKY/WX    TMP DP  RH WIND       PRES   REMARKS
LAS VEGAS, NV  SUNNY     81  25  12 CALM      30.11F
ELY            SUNNY     71  22  15 W9G20     30.28F
ELKO           SUNNY     69  33  26 W8        30.24F
POCATELLO, ID  SUNNY     68  34  28 SW8       30.22F
BURLEY         SUNNY     72  35  25 N7        30.18F
EVANSTON, WY   MOSUNNY   61  30  31 SW13      30.32F
ROCK SPRINGS   SUNNY     64  26  23 W21G31    30.26F
KEMMERER       SUNNY     59  32  36 W15G26    30.31F

$$



USA.gov is the U.S. government's official web portal to all federal, state and local government web resources and services.